AO-07 1 07530U 74089B 20240.01925858 -.00000024 00000-0 13373-3 0 9996 2 07530 101.8064 209.3832 0011806 227.5749 174.0916 12.53644802094833 UO-11 1 14781U 84021B 20240.05933225 .00000059 00000-0 13336-4 0 9997 2 14781 97.5905 248.5210 0007819 339.5326 20.5574 14.83186651963291 LO-19 1 20442U 90005G 20240.73439033 -.00000001 00000-0 15969-4 0 9992 2 20442 98.6965 188.2424 0010894 309.2210 50.8006 14.32959310598823 HUBBLE 1 20580U 90037B 20240.24896010 .00000415 00000-0 14240-4 0 9997 2 20580 028.4687 211.4068 0002920 130.7586 002.2714 15.09421919466673 MET-2/21 1 22782U 93055A 20240.25825951 .00000088 00000-0 65626-4 0 9993 2 22782 082.5517 177.3996 0023459 039.2484 131.4755 13.83829024362834 AO-27 1 22825U 93061C 20240.24757088 -.00000010 00000-0 14074-4 0 9999 2 22825 098.9254 244.4871 0008669 164.0212 196.1244 14.30091174403939 IO-26 1 22826U 93061D 20240.07748947 -.00000008 00000-0 14812-4 0 9992 2 22826 098.9195 244.2518 0009385 153.4175 206.7490 14.30427390404144 FO-29 1 24278U 96046B 20240.22775274 -.00000050 00000-0 -14078-4 0 9993 2 24278 098.5882 340.8116 0350226 191.4288 167.8747 13.53099621186452 NOAA-15 1 25338U 98030A 20240.23264201 .00000022 00000-0 27858-4 0 9997 2 25338 98.7139 264.9106 0011365 60.6723 299.5591 14.25986939159324 GO-32 1 25397U 98043D 20240.35760751 -.00000017 00000-0 11795-4 0 9998 2 25397 98.7312 181.3287 0001047 158.3386 201.7836 14.23689357149867 ISS 1 25544U 98067A 20240.83629779 .00000611 00000-0 19116-4 0 9999 2 25544 51.6466 353.8861 0001769 64.9089 77.9617 15.49190325243121 NO-44 1 26931U 01043C 20240.61975907 -.00000052 00000-0 11704-4 0 9996 2 26931 67.0524 318.7428 0006259 275.4127 84.6260 14.30585353987322 SO-50 1 27607U 02058C 20240.18810889 -.00000046 00000-0 13807-4 0 9992 2 27607 64.5557 158.1029 0039220 154.5408 205.7638 14.75653943951299 CO-55 1 27844U 03031E 20239.99432158 .00000032 00000-0 33872-4 0 9991 2 27844 98.6827 246.6652 0009267 205.2030 154.8696 14.22252699890169 CO-57 1 27848U 03031J 20240.67484135 .00000027 00000-0 31944-4 0 9996 2 27848 98.6893 247.8982 0008979 216.3732 143.6836 14.21837872890091 RS-22 1 27939U 03042A 20240.80540866 .00000091 00000-0 24939-4 0 9995 2 27939 98.1002 14.7156 0014103 125.2195 235.0339 14.66881413904471 NOAA-18 1 28654U 05018A 20240.28075825 .00000042 00000-0 47262-4 0 9995 2 28654 99.0380 297.3507 0014709 35.5952 324.6198 14.12534758787004 CO-58 1 28895U 05043F 20240.02682553 .00000085 00000-0 25174-4 0 9999 2 28895 98.0192 14.4428 0017951 61.0335 299.2664 14.63793096791167 Falconsat-3 1 30776U 07006E 20240.31076066 .00002803 00000-0 74323-4 0 9999 2 30776 35.4335 186.5832 0001558 128.7414 231.3453 15.38086406747759 CO-65 1 32785U 08021C 20240.72335349 .00000178 00000-0 24817-4 0 9992 2 32785 97.5780 225.6237 0011455 255.7307 104.2639 14.88504818668546 AAUSAT2 1 32788U 08021F 20240.19440556 .00000064 00000-0 10784-4 0 9995 2 32788 097.4930 241.5553 0011830 170.5187 189.6260 14.95125119669886 DO-64 1 32789U 08021G 20240.07802277 .00000976 00000-0 67504-4 0 9999 2 32789 097.4133 280.3959 0013655 076.4013 283.8736 15.07874955672457 CO-66 1 32791U 08021J 20239.92979259 .00000355 00000-0 41103-4 0 9997 2 32791 097.5446 230.9822 0012069 223.0336 136.9940 14.91095674668886 RS-30 1 32953U 08025A 20240.78569110 .00000037 00000-0 19437-3 0 9999 2 32953 82.4994 233.5377 0017857 258.2338 101.6737 12.43097944556496 PRISM 1 33493U 09002B 20240.36916197 .00000157 00000-0 19161-4 0 9998 2 33493 98.1468 183.6196 0014835 176.4998 183.6329 14.97105767630322 NOAA-19 1 33591U 09005A 20240.43127958 .00000033 00000-0 43198-4 0 9997 2 33591 99.1965 247.6276 0013137 234.6085 125.3859 14.12428797595411 TISAT-1 1 36799U 10035E 20240.55516123 .00000367 00000-0 42887-4 0 9998 2 36799 98.2000 53.5847 0013626 96.5925 263.6844 14.91408134549726 JUGNU 1 37839U 11058B 20240.20858150 .00000318 00000-0 27520-4 0 9994 2 37839 19.9599 213.6766 0019135 88.5347 21.0030 14.12686593458917 SRMSAT 1 37841U 11058D 20240.23717311 .00000337 00000-0 39821-4 0 9991 2 37841 019.9716 279.3012 0011677 302.2422 117.9275 14.10667910458171 AO-71 1 37854U 11061E 20240.78719601 .00001532 00000-0 84089-4 0 9997 2 37854 101.7061 8.8612 0157974 209.5361 149.6858 15.07419297482672 HRBE 1 37855U 11061F 20240.31413411 .00001297 00000-0 71386-4 0 9991 2 37855 101.7185 5.2667 0170514 224.5166 134.2242 15.06437802482348 HORYU-2 1 38340U 12025D 20240.73639479 .00000091 00000-0 21182-4 0 9992 2 38340 98.2748 295.9778 0011820 167.3721 192.7786 14.75881468445470 RS-40 1 38735U 12041C 20240.22453908 .00000041 00000-0 22465-3 0 9992 2 38735 82.4795 316.5381 0016967 11.5744 348.5723 12.42580770366644 BEESAT-3 1 39135U 13015F 20240.71119101 .00000797 00000-0 48025-4 0 9996 2 39135 64.8656 71.2616 0034910 231.2974 128.5030 15.18294234406420 BEESAT-2 1 39136U 13015G 20239.99667696 .00000693 00000-0 43783-4 0 9993 2 39136 064.8722 078.7890 0034171 272.0087 087.7126 15.17691337405827 ZACUBE-1 1 39417U 13066B 20239.95500249 .00000166 00000-0 27066-4 0 9998 2 39417 97.5683 234.0659 0060049 47.7681 312.8606 14.81307322365477 TRITON-1 1 39427U 13066M 20240.77363242 .00000115 00000-0 26509-4 0 9996 2 39427 97.7316 197.7673 0112774 209.3428 150.1416 14.68035338362314 GOMX-1 1 39430U 13066Q 20240.83496275 .00000150 00000-0 36495-4 0 9994 2 39430 97.7919 175.0577 0150325 320.2258 38.8010 14.59428379360217 LO-74 1 39440U 13066AA 20240.53453718 .00000156 00000-0 28368-4 0 9993 2 39440 97.6366 219.1301 0081530 109.0233 251.9832 14.76042010364267 AO-73 1 39444U 13066AE 20240.51962935 .00000227 00000-0 34035-4 0 9998 2 39444 97.5621 236.8678 0058952 37.9904 322.5446 14.82167572364481 SPROUT 1 39770U 14029E 20240.77367841 .00000409 00000-0 50798-4 0 9999 2 39770 97.9009 346.7672 0010090 91.7279 268.5078 14.87827306339661 DUCHIFAT-1 1 40021U 14033M 20240.35251353 .00000394 00000-0 45757-4 0 9991 2 40021 97.9430 172.0293 0014234 56.9310 303.3273 14.90956247336452 NANOSATCBR1 1 40024U 14033Q 20240.21364962 .00000318 00000-0 38790-4 0 9995 2 40024 097.9267 168.0381 0013568 061.7602 298.4983 14.90118419335770 DTUSAT-2 1 40030U 14033W 20240.32722062 .00000187 00000-0 26046-4 0 9998 2 40030 97.9008 161.9372 0013300 64.9363 295.3233 14.88748386336061 EO-80 1 40032U 14033Y 20240.34851250 .00000186 00000-0 25934-4 0 9998 2 40032 97.9014 161.9613 0013223 65.6870 294.5726 14.88698391336050 ANTELSAT 1 40034U 14033AA 20240.66659300 .00000144 00000-0 28466-4 0 9994 2 40034 97.7073 92.9212 0059702 127.6377 233.0271 14.74287847332904 VELOX-1 1 40057U 14034E 20240.86130877 .00000182 00000-0 32979-4 0 9991 2 40057 98.2897 19.8228 0009620 278.5000 81.5118 14.77912182332183 DAURIA DX 1 1 40071U 14037C 20240.77712950 .00000021 00000-0 10280-4 0 9991 2 40071 98.4631 63.1341 0007215 269.3729 90.6657 14.81384874331813 HODOYOSHI-1 1 40299U 14070B 20240.76912160 .00000424 00000-0 20276-4 0 9997 2 40299 97.3179 315.8392 0011642 309.1950 203.7284 15.24142827322676 CHUBUSAT-1 1 40300U 14070C 20240.79044863 .00000474 00000-0 23303-4 0 9998 2 40300 97.2826 307.8025 0019105 326.8267 154.7142 15.22591604322363 QSAT-EOS 1 40301U 14070D 20240.82314931 .00001152 00000-0 45714-4 0 9993 2 40301 97.2882 313.6279 0023591 297.3185 195.4723 15.27139055322828 FIREBIRD FU3 1 40377U 15003B 20240.15346753 .00002083 00000-0 82194-4 0 9993 2 40377 99.0897 314.8135 0124156 78.1392 283.3730 15.20314570308059 FIREBIRD FU4 1 40378U 15003C 20240.72926929 .00001959 00000-0 77485-4 0 9994 2 40378 99.0901 315.6103 0124287 76.0946 285.4073 15.20334979308145 GRIFEX 1 40379U 15003D 20240.74106441 .00001599 00000-0 69727-4 0 9996 2 40379 99.0963 307.1241 0133466 102.2046 259.4166 15.16585508307655 NO-84 1 40654U 15025D 20239.50943956 .00007288 00000-0 85337-4 0 00164 2 40654 054.9876 337.3929 0113845 012.1221 348.2387 15.55349643179925 DEORBITSAIL 1 40719U 15032E 20240.15882269 .00000282 00000-0 47102-4 0 9991 2 40719 097.8607 127.0282 0016192 345.1093 014.9639 14.77052022276531 NUDT-PHONESAT 1 40900U 15049B 20240.82130963 .00001729 00000-0 73419-4 0 9999 2 40900 97.4304 251.1629 0014260 92.2366 33.1106 15.24349438274065 XW-2A 1 40903U 15049E 20240.77587378 .00001706 00000-0 40145-4 0 9997 2 40903 97.2809 289.7616 0013251 12.1224 124.2681 15.43326374277475 XW-2C 1 40906U 15049H 20240.86210743 .00000572 00000-0 33067-4 0 9994 2 40906 97.4790 241.1668 0016028 122.7683 356.8438 15.16147447273077 XW-2D 1 40907U 15049J 20240.77264623 .00000417 00000-0 24889-4 0 9991 2 40907 97.4775 240.7969 0015405 119.7976 326.9424 15.16388271273085 LILACSAT-2 1 40908U 15049K 20240.82462013 .00000045 00000-0 60483-5 0 9999 2 40908 97.4931 239.1007 0016731 130.2758 351.1485 15.14084113272794 XW-2E 1 40909U 15049L 20240.78421473 .00000713 00000-0 37740-4 0 9991 2 40909 97.4641 244.4030 0014915 111.2631 9.7243 15.18550763273353 XW-2F 1 40910U 15049M 20240.82409900 .00000727 00000-0 38928-4 0 9993 2 40910 97.4697 243.5282 0016222 109.7778 13.1957 15.18059206273168 XW-2B 1 40911U 15049N 20240.83238519 .00000307 00000-0 19267-4 0 9990 2 40911 97.4784 241.5536 0015335 120.2270 0.7709 15.16311875272982 DCBB 1 40912U 15049P 20240.76500662 .00000851 00000-0 42023-4 0 9994 2 40912 97.4481 247.6868 0016539 89.4740 357.2297 15.20469045273551 TW-1C 1 40926U 15051B 20240.82452299 .00022992 00000-0 20304-3 0 9998 2 40926 97.0769 293.1743 0006609 160.7007 289.4398 15.68659434278205 TW-1A 1 40928U 15051D 20240.88442307 .00002426 00000-0 56972-4 0 9996 2 40928 97.1057 266.9731 0008568 291.9844 192.0086 15.42955368276382 IO-86 1 40931U 15052B 20240.20047951 .00000726 00000-0 11952-4 0 9993 2 40931 5.9963 190.8506 0012932 200.0974 159.9090 14.76640792265731 LQSat 1 40958U 15057A 20240.23461410 -.00000028 00000-0 32045-5 0 9993 2 40958 97.8471 301.2831 0016716 283.5844 76.3502 14.73127844262922 ATHENOXAT-1 1 41168U 15077C 20240.69745371 .00001680 00000-0 51944-4 0 9992 2 41168 14.9875 258.6505 0011298 40.4376 319.6784 15.14504197260162 ChubuSat-2 1 41338U 16012B 20240.15778028 .00000281 00000-0 15072-4 0 9995 2 41338 031.0024 256.9795 0013732 097.1833 263.0364 15.00319675248365 ChubuSat-3 1 41339U 16012C 20240.67691304 .00000185 00000-0 76212-5 0 9991 2 41339 31.0112 251.2349 0013332 110.8625 249.3431 15.00481668248448 Horyu-4 1 41340U 16012D 20240.36345226 .00000385 00000-0 22352-4 0 9995 2 41340 31.0040 240.1951 0013920 132.6423 227.5388 15.01540997248549 OUFTI-1 1 41458U 16025C 20240.26529192 .00000992 00000-0 53559-4 0 9991 2 41458 098.1110 354.6168 0162193 331.6936 027.5546 15.07041504238144 e-st@r-II 1 41459U 16025D 20240.79671217 .00001008 00000-0 54820-4 0 9997 2 41459 98.1096 354.5313 0163402 331.9707 27.2811 15.06591927238186 AAUSAT4 1 41460U 16025E 20240.82300994 .00000615 00000-0 34215-4 0 9993 2 41460 98.1077 357.1489 0152392 319.9143 39.0903 15.08965118238403 LO-87 1 41557U 16033B 20240.75592021 .00001062 00000-0 41339-4 0 9997 2 41557 97.4032 330.5224 0013207 188.5815 171.5201 15.28161381236663 NuSat2 1 41558U 16033C 20240.75930706 .00001183 00000-0 43091-4 0 9995 2 41558 97.4093 333.0983 0012350 184.4921 175.6211 15.30162284236798 Lapan A3 1 41603U 16040E 20240.83886708 .00000005 00000-0 33587-5 0 9997 2 41603 97.3017 292.1215 0012401 318.0910 123.8753 15.19862465231984 Swayam 1 41607U 16040J 20240.16290196 .00001234 00000-0 53129-4 0 9995 2 41607 097.3118 297.8498 0011466 301.5038 058.5079 15.24410612232191 Pratham 1 41783U 16059A 20240.18837075 .00000012 00000-0 11437-4 0 9994 2 41783 098.0105 293.6361 0034953 093.5401 266.9799 14.63070049209221 AlSat 1N 1 41789U 16059G 20240.75968239 .00000058 00000-0 19793-4 0 9993 2 41789 98.0144 297.1766 0029683 79.1874 281.2657 14.64337736209465 ScatSat 1 41790U 16059H 20240.84209377 -.00000010 00000-0 82874-5 0 9996 2 41790 98.1552 278.9833 0007019 65.1936 294.9976 14.50926048207576 TY-1 1 41844U 16066D 20240.76238772 .00000690 00000-0 30491-4 0 9996 2 41844 97.4035 248.1354 0016708 92.2463 352.7475 15.24950924211138 Pegasus-1 1 41846U 16066F 20240.13359935 .00000114 00000-0 27484-4 0 9993 2 41846 098.6558 290.9029 0367070 022.8964 338.8127 14.37806909199122 CAS-2T 1 41847U 16066G 20240.24568215 .00000014 00000-0 12372-4 0 9998 2 41847 98.6480 291.4474 0365936 18.1474 343.2384 14.38086624199591 EO-88 1 42017U 17008BX 20240.14434451 .00001247 00000-0 50267-4 0 9992 2 42017 97.3548 306.6631 0007860 76.9741 283.2375 15.26670498196332 CAS-4B 1 42759U 17034B 20240.81011258 .00000055 00000-0 16782-4 0 9994 2 42759 43.0206 354.9864 0009271 121.6468 14.5815 15.09867196176752 CAS-4A 1 42761U 17034D 20240.81733337 .00000030 00000-0 15274-4 0 9994 2 42761 43.0202 354.2014 0009801 123.1106 15.7833 15.09945880176756 UCLSat 1 42765U 17036A 20240.67894913 .00001027 00000-0 45636-4 0 9994 2 42765 97.2949 292.9889 0012608 129.9113 230.3234 15.23661993176833 NIUSat 1 42766U 17036B 20240.08973729 .00000720 00000-0 34565-4 0 9991 2 42766 97.2944 289.6922 0016804 128.2224 232.0528 15.21826684176436 LituanicaSAT 2 1 42768U 17036D 20240.69402388 .00001759 00000-0 74601-4 0 9996 2 42768 97.3008 293.0927 0016130 121.7015 238.5798 15.24303997176690 Aalto 1 1 42775U 17036L 20240.19980079 .00000691 00000-0 33241-4 0 9996 2 42775 097.2923 290.1377 0015215 126.8416 233.4218 15.21932182176438 URSA MAIOR 1 42776U 17036M 20240.70635059 .00000693 00000-0 33131-4 0 9999 2 42776 97.2935 290.9447 0015057 124.8810 235.3845 15.22123308176528 Max Valier Sat 1 42778U 17036P 20240.71009551 .00000749 00000-0 34988-4 0 9997 2 42778 97.2990 292.3554 0013638 127.1249 233.1236 15.22726788176577 Pegasus 1 42784U 17036V 20240.39044132 .00001017 00000-0 45617-4 0 9992 2 42784 97.2953 292.3691 0013124 132.0390 228.1967 15.23345016176574 NUDATSat 1 42787U 17036Y 20240.38507057 .00001378 00000-0 58414-4 0 9993 2 42787 97.2995 293.9265 0011842 124.2846 235.9511 15.24719054176503 SUCHAI 1 1 42788U 17036Z 20240.65119424 .00001118 00000-0 49066-4 0 9996 2 42788 97.2962 293.2782 0012728 129.3370 230.8998 15.23919528176721 SKCUBE 1 42789U 17036AA 20240.11386080 .00001029 00000-0 45584-4 0 9994 2 42789 097.2957 292.5857 0012566 131.3280 228.9041 15.23749724176551 VZLUSAT 1 1 42790U 17036AB 20240.11224990 .00001389 00000-0 58909-4 0 9991 2 42790 097.2983 293.6555 0012127 128.8229 231.4094 15.24700969176619 VENTA 1 1 42791U 17036AC 20240.15448803 .00001051 00000-0 46532-4 0 9992 2 42791 097.2954 292.6637 0012219 131.5554 228.6734 15.23727176176552 Robusta 1B 1 42792U 17036AD 20240.38707811 .00001176 00000-0 51436-4 0 9992 2 42792 97.2960 293.1254 0012157 130.5475 229.6823 15.23947401176626 D-SAT 1 42794U 17036AF 20240.63294757 .00000301 00000-0 31100-4 0 9997 2 42794 97.4895 269.7501 0127435 127.0115 234.2846 14.91308014173303 TechnoSat 1 42829U 17042E 20240.75060032 .00000200 00000-0 25470-4 0 9994 2 42829 97.5095 119.1442 0015452 51.0357 309.2236 14.91123761169918 QIKCOM-1 1 42983U 98067NF 20240.65211130 .00003319 00000-0 43137-4 0 9991 2 42983 51.6388 306.4662 0003559 335.4791 24.6033 15.62064094161418 AO-91 1 43017U 17073E 20240.29275061 .00000237 00000-0 23922-4 0 9997 2 43017 97.7175 149.7892 0256714 179.2158 180.9509 14.78997435149633 EcAMSat 1 43019U 98067NG 20240.43666595 .00007495 00000-0 73444-4 0 9990 2 43019 51.6403 290.8640 0003532 330.0391 30.0403 15.67260198243924 PICSAT 1 43132U 18004X 20240.20330476 .00001192 00000-0 51284-4 0 9996 2 43132 097.4428 311.1006 0010190 155.9615 204.2100 15.24565551145833 AO-92 1 43137U 18004AC 20240.19038135 .00000881 00000-0 39039-4 0 9994 2 43137 097.4412 310.8604 0009722 157.6978 202.4684 15.24239069145829 TianYi 2 1 43155U 18008A 20240.77835627 .00000296 00000-0 21059-4 0 9996 2 43155 97.4415 308.0362 0015903 262.3932 241.8646 15.11715165143694 Zhou Enlai 1 43156U 18008B 20240.81587208 .00000250 00000-0 18625-4 0 9996 2 43156 97.4453 307.9161 0013028 261.7628 165.9170 15.11266987143650 TianYi 6 1 43158U 18008D 20240.73469874 .00000803 00000-0 52045-4 0 9995 2 43158 97.4404 306.8060 0012252 259.7392 229.4382 15.10801774143588 S-Net G 1 43186U 18014G 20240.30906358 .00000064 00000-0 10605-4 0 9994 2 43186 97.6884 146.9794 0010979 356.6734 3.4413 14.96841936140298 S-Net H 1 43187U 18014H 20240.30889866 .00000069 00000-0 11078-4 0 9999 2 43187 97.6881 146.9556 0010981 356.5630 3.5515 14.96841609140290 S-Net J 1 43188U 18014J 20240.30877573 .00000086 00000-0 12514-4 0 9997 2 43188 97.6885 146.9879 0010983 356.7141 3.4006 14.96841494140290 S-Net K 1 43189U 18014K 20240.30922672 .00000050 00000-0 93774-5 0 9998 2 43189 97.6881 146.9509 0010989 356.5308 3.5836 14.96840856138847 FMN 1 1 43192U 18015A 20240.82358900 .00001806 00000-0 73289-4 0 9995 2 43192 97.4515 10.0144 0015211 192.0801 295.4282 15.25840762142787 Shaonian Xing 1 43199U 18015H 20240.87548605 .00001294 00000-0 53157-4 0 9993 2 43199 97.4303 8.1484 0015988 202.4685 278.4461 15.25938329142856 UBAKUSAT 1 43467U 98067NQ 20240.56792789 .00034236 00000-0 18879-3 0 9999 2 43467 51.6337 274.7838 0002890 15.6726 344.4365 15.79326534131331 EnduroSat One 1 43551U 98067NZ 20240.53112943 .00094548 14421-4 31120-3 0 9990 2 43551 51.6294 267.6269 0006672 28.2509 331.8858 15.90436053121659 EQUISat 1 43552U 98067PA 20240.36856542 .00034447 00000-0 19961-3 0 9997 2 43552 51.6305 283.3087 0005899 17.4533 342.6669 15.78202187121399 UiTMSat 1 1 43589U 98067PD 20240.54553946 .00037746 00000-0 17680-3 0 9990 2 43589 51.6329 278.2815 0005754 30.9750 329.1591 15.82815759117218 Maya 1 1 43590U 98067PE 20240.28566006 .00058131 00000-0 26973-3 0 9990 2 43590 51.6275 279.5009 0005795 25.2683 334.8602 15.82823518117102 Bhutan 1 1 43591U 98067PF 20240.12321063 .00053000 00000-0 24381-3 0 9997 2 43591 51.6334 280.0438 0006036 28.4595 331.6736 15.83043684117087 SiriusSat 1 1 43595U 98067PG 20240.63555348 .00040346 00000-0 22261-3 0 9996 2 43595 51.6273 284.1502 0004162 15.5321 344.5807 15.79226459116250 SiriusSat 2 1 43596U 98067PH 20240.19589676 .00041719 00000-0 23141-3 0 9992 2 43596 051.6268 287.2898 0004201 012.2950 347.8153 15.79092760116170 Tanusha-3 1 43597U 98067PJ 20240.52645351 .00519802 14635-3 57982-3 0 9998 2 43597 51.6195 262.7276 0007611 31.8295 328.3177 16.08790974116529 SurfSat 1 43614U 18070B 20240.78498518 .00002872 00000-0 73073-4 0 9995 2 43614 93.0254 184.0955 0017836 66.1924 294.1198 15.39496690109453 CP-7 DAVE 1 43615U 18070C 20239.91338536 .00002481 00000-0 63480-4 0 9999 2 43615 93.0256 183.7206 0018052 68.5852 291.7326 15.39329197109316 ELFIN-B 1 43616U 18070D 20240.34391973 .00004220 00000-0 10269-3 0 9992 2 43616 93.0215 183.8656 0018450 68.0921 292.2293 15.40814648109430 ELFIN-A 1 43617U 18070E 20240.04333645 .00003954 00000-0 95574-4 0 9998 2 43617 93.0266 184.3126 0017823 66.6356 293.6772 15.41034677109393 STARS-Me Mother 1 43640U 98067PQ 20240.61670414 .00012485 00000-0 11795-3 0 9990 2 43640 51.6348 306.7951 0003908 320.4812 39.5899 15.67437553107880 CubeBel 1 1 43666U 18083E 20240.88126334 .00000798 00000-0 42037-4 0 9992 2 43666 97.4848 266.6313 0016479 109.5360 14.5596 15.18376527101451 Changshagaoxin 1 43669U 18083H 20240.76720246 .00000625 00000-0 34609-4 0 9999 2 43669 97.4743 264.4931 0012528 104.2691 255.9934 15.17383080101346 Ten-Koh 1 43677U 18084G 20240.39126243 .00000084 00000-0 14516-4 0 9999 2 43677 97.8899 357.3122 0014597 285.8656 74.0952 14.90308902 99504 PO-101 1 43678U 18084H 20240.78195948 .00000321 00000-0 37666-4 0 9996 2 43678 97.8917 359.2129 0008863 307.4098 52.6294 14.91649543 99651 IRVINE 01 1 43693U 18088D 20240.71502390 .00002126 00000-0 87947-4 0 9995 2 43693 85.0356 29.8216 0018791 35.3661 324.8824 15.23145331 99694 QO-100 1 43700U 18090A 20240.63674341 .00000123 00000-0 00000 0 0 9999 2 43700 0.0156 157.2490 0002141 0.1550 73.9348 1.00273334 6660 Reaktor Hello World 1 43743U 18096AA 20240.17884204 .00001046 00000-0 41479-4 0 9997 2 43743 097.4171 313.6866 0016431 234.9043 125.0656 15.27546897097190 MinXSS-2 1 43758U 18099A 20240.71420928 -.00000197 00000-0 -12484-4 0 9997 2 43758 97.7021 311.4782 0014497 315.0943 44.9104 14.95712497 94601 AO-95 1 43770U 18099N 20240.18740453 -.00000039 00000-0 16373-5 0 9996 2 43770 097.7012 310.3203 0013633 325.7136 034.3203 14.95026878094484 RANGE-B 1 43772U 18099Q 20240.26538528 .00000383 00000-0 39995-4 0 9990 2 43772 97.7081 310.9880 0012902 311.5313 48.4800 14.95226314 94494 RANGE-A 1 43773U 18099R 20240.24626426 -.00000248 00000-0 -17462-4 0 9991 2 43773 97.6955 309.9641 0012410 312.2474 47.7693 14.94995998 94488 MOVE-II 1 43780U 18099Y 20240.71866053 -.00000001 00000-0 50881-5 0 9992 2 43780 97.7017 311.1017 0012482 321.2805 38.7521 14.95459331 94561 SNUSat 2 1 43782U 18099AA 20240.13609039 .00000394 00000-0 40948-4 0 9995 2 43782 97.7009 310.5069 0011467 311.9442 48.0800 14.95290586 94489 SnugLite 1 43784U 18099AC 20240.23358922 .00000013 00000-0 63738-5 0 9991 2 43784 97.6977 310.4091 0014022 319.9106 40.1079 14.95396268 94512 ITASat 1 1 43786U 18099AE 20240.77066199 -.00000138 00000-0 -73078-5 0 9992 2 43786 97.7031 311.3636 0014100 317.0327 42.9792 14.95363257 94594 EAGLET 1 1 43790U 18099AJ 20240.74457992 .00000585 00000-0 57654-4 0 9994 2 43790 97.7018 311.6242 0012379 322.0984 37.9365 14.95741205 94303 ESEO 1 43792U 18099AL 20240.76051374 .00000175 00000-0 20884-4 0 9992 2 43792 97.6993 311.4276 0012193 319.5083 40.5229 14.95618366 94362 CSIM 1 43793U 18099AM 20240.71566529 -.00000078 00000-0 -18168-5 0 9998 2 43793 97.6990 311.4140 0011849 315.2016 44.8248 14.96112942 94342 Astrocast 0.1 1 43798U 18099AS 20240.19133515 -.00000112 00000-0 -48753-5 0 9992 2 43798 097.7013 311.1938 0011214 301.8167 058.1962 14.95895929094523 JO-97 1 43803U 18099AX 20240.70968367 -.00000222 00000-0 -14808-4 0 9992 2 43803 97.6991 311.1060 0014083 317.3109 42.7017 14.95546870 94589 Suomi 100 1 43804U 18099AY 20240.77799923 -.00000244 00000-0 -16771-4 0 9995 2 43804 97.6987 311.1584 0014164 317.0878 42.9237 14.95533442 94606 Al Farabi 2 1 43805U 18099AZ 20240.74627225 .00000715 00000-0 69363-4 0 9994 2 43805 97.6997 311.2315 0013948 317.0933 42.9199 14.95662678 94603 PWSat 2 1 43814U 18099BJ 20240.19170069 .00031549 00000-0 16587-2 0 9999 2 43814 097.7925 322.5305 0005059 241.0411 119.0314 15.15598204094421 CHOMPTT 1 43855U 18104G 20240.19887608 .00000854 00000-0 34329-4 0 9996 2 43855 085.0381 128.4145 0018626 144.9335 215.3138 15.23073996094291 ISAT 1 43879U 18111D 20240.78646234 -.00000227 00000-0 -14932-4 0 9997 2 43879 97.6960 147.0517 0013669 12.1397 348.0152 14.96285722 89133 UWE-4 1 43880U 18111E 20240.68828100 .00000688 00000-0 65548-4 0 9990 2 43880 97.6971 147.2623 0012640 15.2614 344.8986 14.96531907 89140 Sparrow 1 43881U 18111F 20240.73541408 .00000057 00000-0 10095-4 0 9997 2 43881 97.6973 147.3913 0012821 11.1994 348.9511 14.96572032 89157 Lume 1 1 43908U 18111AJ 20240.76220530 .00000783 00000-0 33911-4 0 9998 2 43908 97.2576 138.5743 0019479 249.8423 110.0720 15.25159061 92899 FO-98 1 43933U 19003B 20240.19059899 .00000606 00000-0 29246-4 0 9992 2 43933 097.2242 287.1989 0017643 358.5595 001.5588 15.22199640089299 FO-99 1 43937U 19003F 20240.12022815 .00000945 00000-0 40954-4 0 9992 2 43937 97.2204 288.5760 0023168 338.8645 21.1633 15.24531851 89407 Delphini 1 1 44030U 98067PW 20240.67686311 .00020426 00000-0 17996-3 0 9996 2 44030 51.6338 312.4448 0004613 2.1978 357.9038 15.68707811 89686 MYSat 1 1 44045U 18092F 20239.94037289 .00001837 00000-0 60636-4 0 9999 2 44045 051.6397 059.9575 0010894 216.5582 143.4658 15.36975095086129 AstroCast 0.2 1 44083U 19018F 20240.70534056 .00000504 00000-0 25327-4 0 9998 2 44083 97.4154 300.7456 0011463 284.1720 75.8242 15.21689156 78215 AISTechSat 3 1 44103U 19018AB 20240.78641472 .00000603 00000-0 28409-4 0 9994 2 44103 97.4020 301.0382 0012010 301.0466 198.9647 15.23261736 78293 AISat 1 1 44104U 19018AC 20240.21081314 .00000592 00000-0 21440-4 0 9991 2 44104 097.4592 310.3144 0056947 322.9562 036.7753 15.31163360078631 Raavana-1 1 44329U 98067QE 20240.68972157 .00010949 00000-0 14338-3 0 9990 2 44329 51.6403 336.7184 0005201 276.3243 83.7158 15.59149064 68112 Uguisu 1 44330U 98067QF 20240.32187529 .00010539 00000-0 13882-3 0 9992 2 44330 51.6378 338.7399 0005149 273.6359 86.4045 15.59040597 68031 NepaliSat-1 1 44331U 98067QG 20240.29679710 .00010921 00000-0 14300-3 0 9998 2 44331 51.6379 338.5748 0005215 277.4960 82.5440 15.59155819 68044 Prox-1 1 44339U 19036A 20240.76107940 .00000832 00000-0 14751-3 0 9998 2 44339 24.0011 23.1702 0010730 213.3154 146.6662 14.53083743 62511 Oculus-ASR 1 44348U 19036K 20240.57561810 .00010795 00000-0 15776-3 0 9994 2 44348 28.5160 276.4749 0362505 347.1287 12.0254 15.03710143 64514 Armadillo 1 44352U 19036P 20240.18613460 .00016633 00000-0 24151-3 0 9999 2 44352 028.5309 272.7895 0348144 352.1717 007.3543 15.06972992064469 NO-104 1 44354U 19036R 20240.19315945 .00012291 00000-0 17706-3 0 9993 2 44354 028.5303 275.6570 0359151 347.1788 011.9870 15.04777264064488 NO-103 1 44355U 19036S 20240.19007527 .00022698 00000-0 30949-3 0 9994 2 44355 028.5292 262.9065 0333485 007.9350 352.6357 15.11338778064613 CP9 1 44360U 19036X 20240.23057855 .00040242 -53290-5 44161-3 0 9995 2 44360 028.5101 242.7217 0309731 041.7908 320.5910 15.20013653064694 Move-IIb 1 44398U 19038N 20240.34636211 .00000911 00000-0 55920-4 0 9999 2 44398 97.5418 200.7016 0023533 241.9804 117.9046 15.12456676 63295 SONATE 1 44400U 19038Q 20240.13482417 .00000282 00000-0 20184-4 0 9992 2 44400 97.5460 200.5021 0023691 241.2749 118.6101 15.12015717 63259 BeeSat 9 1 44412U 19038AC 20240.13230000 .00000567 00000-0 36312-4 0 9990 2 44412 097.5444 200.6094 0021071 246.7962 113.1049 15.12396130062950 JAISAT-1 1 44419U 19038F 20240.13001928 .00000594 00000-0 37387-4 0 9995 2 44419 97.5446 200.9251 0019945 245.6333 114.2816 15.12879937 63286 LightSail-2 1 44420U 19036AC 20240.74040711 .00004859 00000-0 10290-2 0 9995 2 44420 24.0075 17.1725 0014183 226.1798 133.7521 14.56228484 60719 Taurus 1 1 44530U 19059C 20240.75105307 .00000427 00000-0 13370-3 0 9996 2 44530 98.5684 322.5204 0013687 310.0989 49.8985 14.45596671 50647 MO-106 1 44830U 19084G 20240.70491357 .00120958 71464-5 42717-3 0 9991 2 44830 96.9614 110.9419 0014512 320.4783 39.5431 15.88944768 41720 TRSI-Sat 1 44831U 19084H 20240.10194784 .00114041 65233-5 42096-3 0 9993 2 44831 96.9609 110.2918 0015032 324.0320 35.9940 15.88047159 41630 MO-105 1 44832U 19084J 20240.60123180 .00167168 12351-4 48406-3 0 9992 2 44832 96.9591 111.2449 0011399 316.8705 43.1677 15.92882440 41733 Duchifat 3 1 44854U 19089C 20240.76417033 .00000222 00000-0 24347-4 0 9991 2 44854 36.9679 36.9053 0009804 284.3432 75.6218 14.99109421 39001 OPS-SAT 1 44878U 19092F 20240.08237196 .00000781 00000-0 44519-4 0 9999 2 44878 097.4708 062.1659 0015652 109.6504 250.6419 15.15592707038236 TO-108 1 44881U 19093C 20240.72005638 .00000001 00000-0 70004-5 0 9993 2 44881 97.9545 316.2762 0015309 160.8091 199.3708 14.81417716 37249 FloripaSat 1 1 44885U 19093G 20240.75525968 .00000197 00000-0 31511-4 0 9998 2 44885 97.9542 316.5241 0014839 171.1589 188.9874 14.82065965 37265 RS-44 1 44909U 19096E 20240.73973774 .00000007 00000-0 -22766-4 0 9991 2 44909 82.5220 307.9522 0218285 60.0323 302.2252 12.79707589 31303 SwampSat-2 1 45115U 19071E 20239.80608809 .00010049 00000-0 28851-3 0 9990 2 45115 51.6424 21.4684 0011861 313.7849 46.2152 15.36402466 31930 HO-107 1 45119U 19071J 20239.83619483 .00001139 00000-0 45783-4 0 9991 2 45119 051.6451 023.1364 0011724 309.2178 050.7762 15.33769428031928 Phoenix 1 45258U 98067RB 20240.57398014 .00004037 00000-0 75046-4 0 9999 2 45258 51.6426 353.1896 0005565 245.7861 114.2547 15.51381762 29519 AztechSat-1 1 45261U 98067RE 20240.35193781 .00008633 00000-0 14415-3 0 9991 2 45261 51.6422 353.2156 0007244 264.8091 95.2073 15.52790752 29518 QARMAN 1 45263U 98067RG 20240.80651250 .00006846 00000-0 11923-3 0 9998 2 45263 51.6426 351.7487 0006747 262.7750 97.2473 15.51988600 29617 Quetzal 1 1 45598U 98067RL 20239.56753124 .00005455 00000-0 99778-4 0 9993 2 45598 51.6432 359.2234 0003018 353.6555 6.4396 15.51056343 18679 BY70-2 1 45857U 20042B 20240.75816894 .00000633 00000-0 98754-4 0 9992 2 45857 98.0105 313.3243 0012814 82.7717 277.4943 14.76270936 8213 /EX
